OE3WYC-1 Weather Reports


time (UTC)temp
F
wind
direction
speed
knots
gust
knots
rain 1hr
in
rain 24hr
in
rain mn
in
humidity
%
barometer
mb
20260905212001 71 0 0.0 0.0 0.00 0.00 0.00 63 1020.7
20260905211502 71 247 0.0 4.3 0.00 0.00 0.00 63 1020.5
20260905211000 71 247 0.0 4.3 0.00 0.00 0.00 63 1020.4
20260905210501 71 0 0.0 0.0 0.00 0.00 0.00 62 1020.3
20260905210001 71 0 0.0 0.0 0.00 0.00 0.00 62 1020.4
20260905205502 71 0 0.0 0.0 0.00 0.00 0.00 62 1020.5
20260905204001 71 247 0.0 1.7 0.00 0.00 0.00 62 1020.4
20260905203503 71 247 0.0 1.7 0.00 0.00 0.00 62 1020.3
20260905203001 71 0 0.0 0.0 0.00 0.00 0.00 62 1020.4
20260905202501 71 0 0.0 0.0 0.00 0.00 0.00 63 1020.2
20260905201501 72 247 0.0 7.0 0.00 0.00 0.00 63 1020.3
20260905201001 72 0 0.0 0.0 0.00 0.00 0.00 63 1020.2
20260905200501 72 0 0.0 0.0 0.00 0.00 0.00 63 1020.2
20260905200001 72 247 0.0 1.7 0.00 0.00 0.00 62 1020.2
20260905195502 72 247 0.0 7.0 0.00 0.00 0.00 62 1020.1
20260905195001 72 247 0.0 7.0 0.00 0.00 0.00 62 1019.9
20260905194002 72 247 0.0 4.3 0.00 0.00 0.00 62 1020.0
20260905193501 72 247 0.0 6.1 0.00 0.00 0.00 62 1019.9
20260905193001 72 247 0.0 6.1 0.00 0.00 0.00 62 1019.9
20260905192501 72 0 0.0 0.0 0.00 0.00 0.00 62 1019.9
20260905192003 72 247 0.0 4.3 0.00 0.00 0.00 62 1019.9
20260905191501 72 247 0.0 4.3 0.00 0.00 0.00 62 1019.8
20260905191001 72 0 0.0 0.0 0.00 0.00 0.00 62 1019.7
20260905190501 72 0 0.0 0.0 0.00 0.00 0.00 62 1020.0
20260905185501 72 247 0.0 4.3 0.00 0.00 0.00 61 1019.8
20260905185001 72 0 0.0 0.0 0.00 0.00 0.00 61 1019.7
20260905184501 73 0 0.0 0.0 0.00 0.00 0.00 61 1019.6
20260905184002 73 0 0.0 0.0 0.00 0.00 0.00 62 1019.5
20260905183501 73 0 0.0 0.0 0.00 0.00 0.00 61 1019.4
20260905183001 73 0 0.0 0.0 0.00 0.00 0.00 61 1019.4
20260905182501 73 0 0.0 0.0 0.00 0.00 0.00 61 1019.3
20260905182002 73 0 0.0 0.0 0.00 0.00 0.00 61 1019.2
20260905181501 73 0 0.0 0.0 0.00 0.00 0.00 62 1019.2
20260905181001 73 247 0.0 4.3 0.00 0.00 0.00 61 1019.0
20260905180501 74 247 0.0 4.3 0.00 0.00 0.00 60 1019.2
20260905180002 74 0 0.0 0.0 0.00 0.00 0.00 61 1019.1
20260905175501 74 0 0.0 0.0 0.00 0.00 0.00 61 1019.0
20260905175002 74 0 0.0 0.0 0.00 0.00 0.00 60 1018.9
20260905174501 74 0 0.0 0.0 0.00 0.00 0.00 60 1018.8
20260905174002 74 0 0.0 0.0 0.00 0.00 0.00 61 1018.8
20260905173501 74 0 0.0 0.0 0.00 0.00 0.00 61 1018.6
20260905173001 74 0 0.0 0.0 0.00 0.00 0.00 61 1018.5
20260905172501 74 0 0.0 0.0 0.00 0.00 0.00 61 1018.5
20260905172002 75 247 0.0 4.3 0.00 0.00 0.00 60 1018.5
20260905171501 75 247 0.0 4.3 0.00 0.00 0.00 60 1018.6
20260905171001 75 247 0.0 3.5 0.00 0.00 0.00 60 1018.5
20260905170500 75 247 0.0 3.5 0.00 0.00 0.00 60 1018.5
20260905170002 75 247 0.0 3.5 0.00 0.00 0.00 59 1018.4
20260905165500 75 247 0.0 3.5 0.00 0.00 0.00 58 1018.3
20260905165001 75 247 0.0 2.6 0.00 0.00 0.00 57 1018.2
20260905164501 76 253 0.0 3.5 0.00 0.00 0.00 57 1018.1
20260905164003 76 255 0.0 3.5 0.00 0.00 0.00 57 1018.1
20260905161501 76 279 0.0 5.2 0.00 0.00 0.00 59 1018.0
20260905161001 76 293 0.0 3.5 0.00 0.00 0.00 59 1017.8
20260905160501 76 266 0.0 5.2 0.00 0.00 0.00 59 1017.9
20260905160002 76 266 0.0 5.2 0.00 0.00 0.00 60 1017.8
20260905155501 77 314 0.0 4.3 0.00 0.00 0.00 60 1017.9
20260905155001 77 221 0.0 8.7 0.00 0.00 0.00 60 1017.8
20260905154501 77 240 0.0 8.7 0.00 0.00 0.00 59 1017.8
20260905154002 77 234 8.7 8.7 0.00 0.00 0.00 58 1017.7
20260905153501 77 216 0.0 7.0 0.00 0.00 0.00 58 1017.8
20260905153001 77 220 0.0 7.0 0.00 0.00 0.00 58 1017.8
20260905152501 77 223 3.5 7.8 0.00 0.00 0.00 58 1017.8
20260905152001 77 229 0.0 7.8 0.00 0.00 0.00 58 1017.6
20260905151501 77 247 6.1 6.1 0.00 0.00 0.00 57 1017.8
20260905151003 77 270 0.0 6.1 0.00 0.00 0.00 58 1017.6
20260905150501 77 294 0.0 8.7 0.00 0.00 0.00 58 1017.9
20260905150001 77 306 0.0 8.7 0.00 0.00 0.00 58 1017.8
20260905145501 77 235 0.0 4.3 0.00 0.00 0.00 59 1018.0
20260905145002 77 203 0.0 4.3 0.00 0.00 0.00 58 1017.7
20260905144501 77 220 0.0 3.5 0.00 0.00 0.00 59 1017.6
20260905144001 77 211 0.0 6.1 0.00 0.00 0.00 58 1017.7
20260905143501 77 213 0.0 10.4 0.00 0.00 0.00 58 1017.7
20260905143002 77 214 0.0 10.4 0.00 0.00 0.00 57 1017.8
20260905142501 77 205 4.3 9.6 0.00 0.00 0.00 58 1017.8
20260905142001 77 203 0.0 9.6 0.00 0.00 0.00 58 1017.8
20260905141002 77 203 0.0 12.2 0.00 0.00 0.00 59 1017.8
20260905140501 77 229 0.0 7.8 0.00 0.00 0.00 59 1017.9
20260905140001 77 214 0.0 10.4 0.00 0.00 0.00 58 1018.1
20260905134500 76 206 0.0 9.6 0.00 0.00 0.00 58 1017.8
20260905134001 76 204 0.0 11.3 0.00 0.00 0.00 58 1018.1
20260905133502 76 205 11.3 11.3 0.00 0.00 0.00 59 1018.0
20260905133000 76 209 0.0 9.6 0.00 0.00 0.00 59 1018.1
20260905132501 76 216 3.5 9.6 0.00 0.00 0.00 58 1018.1
20260905132001 76 297 0.0 6.1 0.00 0.00 0.00 58 1018.1
20260905131502 76 268 0.0 6.1 0.00 0.00 0.00 58 1018.2
20260905131001 76 258 0.0 5.2 0.00 0.00 0.00 58 1018.3
20260905130500 76 255 0.0 6.1 0.00 0.00 0.00 59 1018.1
20260905130002 76 224 0.0 6.1 0.00 0.00 0.00 60 1018.2
20260905125501 75 241 0.0 7.8 0.00 0.00 0.00 60 1018.3
20260905125001 75 319 7.8 7.8 0.00 0.00 0.00 61 1018.2
20260905124002 75 297 0.0 6.1 0.00 0.00 0.00 61 1018.2
20260905123500 75 270 0.0 4.3 0.00 0.00 0.00 62 1018.2
20260905123001 74 270 0.0 4.3 0.00 0.00 0.00 62 1018.3
20260905122501 74 262 2.6 4.3 0.00 0.00 0.00 61 1018.3
20260905122000 74 251 0.0 7.0 0.00 0.00 0.00 61 1018.3
20260905121502 74 272 4.3 7.8 0.00 0.00 0.00 62 1018.4
20260905121000 74 280 0.0 7.8 0.00 0.00 0.00 62 1018.4
20260905115502 74 249 0.0 9.6 0.00 0.00 0.00 62 1018.6
20260905115001 74 288 3.5 5.2 0.00 0.00 0.00 62 1018.5
20260905114500 74 287 1.7 5.2 0.00 0.00 0.00 62 1018.5
20260905114001 74 299 4.3 5.2 0.00 0.00 0.00 63 1018.4
20260905113502 73 304 0.0 7.8 0.00 0.00 0.00 62 1018.6
20260905113001 73 294 0.0 7.8 0.00 0.00 0.00 63 1018.6
20260905112501 73 284 0.0 6.1 0.00 0.06 0.00 63 1018.6
20260905111503 72 267 0.0 5.2 0.00 0.06 0.00 64 1018.6
20260905111001 72 266 0.0 5.2 0.00 0.06 0.00 64 1018.5
20260905110500 72 286 0.0 9.6 0.00 0.06 0.00 65 1018.7
20260905110001 72 282 3.5 9.6 0.00 0.06 0.00 65 1018.7
20260905105502 71 282 0.0 13.0 0.00 0.06 0.00 66 1018.8
20260905105000 71 282 3.5 13.0 0.00 0.06 0.00 66 1018.7
20260905104501 71 282 3.5 12.2 0.00 0.06 0.00 67 1018.6
20260905104001 71 289 0.0 12.2 0.00 0.06 0.00 67 1018.6
20260905103500 71 282 0.0 9.6 0.00 0.06 0.00 67 1018.8
20260905103002 70 275 0.0 10.4 0.00 0.06 0.00 68 1018.7
20260905102501 70 286 0.0 10.4 0.00 0.06 0.00 68 1018.6
20260905102001 70 290 5.2 7.8 0.00 0.06 0.00 68 1018.6
20260905101501 70 267 0.0 7.8 0.00 0.06 0.00 69 1018.7
20260905101001 69 247 0.0 5.2 0.00 0.06 0.00 69 1018.6
20260905100501 69 247 0.0 5.2 0.00 0.06 0.00 70 1018.6
20260905100001 68 247 0.0 4.3 0.00 0.06 0.00 70 1018.8
20260905095501 68 285 0.0 4.3 0.00 0.06 0.00 70 1018.7
20260905095000 68 294 0.0 4.3 0.00 0.06 0.00 70 1018.8
20260905094501 67 299 0.0 4.3 0.00 0.06 0.00 70 1018.7
20260905094001 67 292 0.0 3.5 0.00 0.06 0.00 70 1018.8
20260905093502 67 0 0.0 0.0 0.00 0.06 0.00 70 1018.8
20260905093000 67 0 0.0 0.0 0.00 0.06 0.00 70 1018.8
20260905092501 67 292 0.0 2.6 0.00 0.06 0.00 70 1018.9
20260905092001 67 292 0.0 2.6 0.00 0.06 0.00 70 1019.0
20260905091001 66 292 0.0 1.7 0.00 0.06 0.00 70 1019.1
20260905090501 67 0 0.0 0.0 0.00 0.06 0.00 69 1018.7
20260905090001 67 0 0.0 0.0 0.00 0.06 0.00 69 1018.6
20260905085503 67 0 0.0 0.0 0.00 0.06 0.00 68 1018.8
20260905085001 67 0 0.0 0.0 0.00 0.06 0.00 68 1018.9
20260905084500 67 0 0.0 0.0 0.00 0.06 0.00 68 1018.8
20260905083502 67 0 0.0 0.0 0.00 0.06 0.00 67 1019.3
20260905083000 67 0 0.0 0.0 0.00 0.06 0.00 67 1019.2
20260905082501 67 0 0.0 0.0 0.00 1.19 0.00 66 1019.0
20260905082000 67 0 0.0 0.0 0.00 1.19 0.00 66 1019.3
20260905081502 67 0 0.0 0.0 0.00 1.19 0.00 66 1019.2
20260905080501 67 0 0.0 0.0 0.00 1.19 0.00 66 1018.9
20260905080001 67 0 0.0 0.0 0.00 1.19 0.00 65 1019.3
20260905075500 67 0 0.0 0.0 0.00 1.19 0.00 65 1019.6
20260905072500 67 0 0.0 0.0 0.00 1.19 0.00 63 1019.6
20260905072000 67 0 0.0 0.0 0.00 1.19 0.00 63 1019.5
20260905071502 67 0 0.0 0.0 0.00 1.19 0.00 62 1019.1
20260905071001 67 314 0.0 3.5 0.00 1.19 0.00 62 1018.9
20260905070500 67 314 0.0 3.5 0.00 1.19 0.00 62 1019.0
20260905065502 67 304 0.0 5.2 0.00 1.19 0.00 61 1019.3
20260905065001 67 299 4.3 4.3 0.00 1.19 0.00 61 1019.5
20260905064501 68 308 0.0 3.5 0.00 1.19 0.00 60 1019.2
20260905064001 68 314 0.0 2.6 0.00 1.19 0.00 60 1019.3
20260905063502 68 331 0.0 7.0 0.00 1.19 0.00 60 1019.0
20260905063001 68 331 0.0 7.0 0.00 1.19 0.00 59 1018.7
20260905062501 69 9 0.0 8.7 0.00 1.19 0.00 58 1018.6
20260905062000 69 3 0.0 8.7 0.00 1.19 0.00 58 1018.4
20260905061502 69 349 0.0 5.2 0.00 1.19 0.00 57 1018.2
20260905060501 69 354 0.0 9.6 0.00 1.19 0.00 55 1017.8
20260905060001 70 2 3.5 11.3 0.00 1.19 0.00 56 1017.4
20260905055502 70 340 5.2 11.3 0.00 1.19 0.00 56 1017.2
20260905055000 69 345 0.0 7.8 0.00 1.19 0.00 56 1017.1
20260905054501 69 356 7.8 11.3 0.00 1.19 0.00 56 1016.7
20260905054000 69 1 5.2 11.3 0.00 1.19 0.00 56 1016.8
20260905053500 69 350 0.9 7.8 0.00 1.19 0.00 57 1016.5
20260905053002 69 349 0.0 7.8 0.00 1.19 0.00 58 1016.4
20260905052501 69 322 3.5 8.7 0.00 1.19 0.00 58 1016.4
20260905052000 69 300 0.0 8.7 0.00 1.19 0.00 58 1016.4
20260905051500 69 316 3.5 7.0 0.00 1.19 0.00 59 1016.0
20260905051001 69 327 2.6 7.0 0.00 1.19 0.00 59 1015.7
20260905050503 69 329 4.3 6.1 0.00 1.19 0.00 60 1015.6
20260905050001 69 336 0.0 5.2 0.00 1.19 0.00 60 1015.7
20260905045501 69 356 0.9 6.1 0.00 1.19 0.00 61 1015.3
20260905045001 70 21 3.5 9.6 0.00 1.19 0.00 62 1015.1
20260905044502 70 24 0.0 9.6 0.00 1.19 0.00 62 1014.9
20260905043001 70 329 0.0 5.2 0.00 1.19 0.00 62 1015.7
20260905042501 70 317 0.0 7.0 0.00 1.19 0.00 63 1015.3
20260905042002 70 334 1.7 7.0 0.00 1.19 0.00 63 1015.4
20260905041500 70 339 5.2 5.2 0.00 1.19 0.00 63 1015.1
20260905041001 71 332 3.5 8.7 0.00 1.19 0.00 62 1014.8
20260905040000 71 314 0.0 7.0 0.00 1.19 0.00 62 1014.8
20260905035500 72 327 0.0 7.0 0.00 1.19 0.00 61 1014.6
20260905035001 72 336 0.9 11.3 0.00 1.19 0.00 61 1015.0
20260905034501 72 326 3.5 11.3 0.00 1.19 0.00 61 1015.1
20260905034001 72 326 1.7 7.8 0.00 1.19 0.00 62 1014.7
20260905033501 72 338 2.6 6.1 0.00 1.19 0.00 63 1014.5
20260905033001 73 332 0.0 7.0 0.00 1.19 0.00 63 1014.4
20260905032500 73 330 2.6 7.8 0.00 1.19 0.00 63 1014.4
20260905031502 74 321 3.5 9.6 0.00 1.19 0.00 64 1014.0
20260905031000 74 354 0.0 7.0 0.00 1.19 0.00 65 1013.7
20260905030501 75 1 0.0 5.2 0.00 1.19 0.00 64 1013.7
20260905030000 75 229 0.0 3.5 0.00 1.19 0.00 64 1013.3
20260905025500 75 0 0.0 0.0 0.00 1.19 0.00 62 1013.1
20260905024501 75 0 0.0 0.0 0.00 1.19 0.00 61 1012.2
20260905024000 75 0 0.0 0.0 0.00 1.19 0.00 61 1012.0
20260905023502 75 0 0.0 0.0 0.00 1.19 0.00 61 1012.0
20260905022500 75 0 0.0 0.0 0.00 1.19 0.00 60 1012.2
20260905022000 75 0 0.0 0.0 0.00 1.19 0.00 59 1012.4
20260905021502 76 0 0.0 0.0 0.00 1.19 0.00 60 1012.5
20260905020501 76 0 0.0 0.0 0.00 1.19 0.00 60 1012.2
20260905020000 76 0 0.0 0.0 0.00 1.19 0.00 60 1012.0
20260905015502 76 0 0.0 0.0 0.00 1.19 0.00 60 1011.9
20260905015000 76 0 0.0 0.0 0.00 1.19 0.00 60 1011.8
20260905014001 76 0 0.0 0.0 0.00 1.19 0.00 60 1012.0
20260905013502 76 0 0.0 0.0 0.00 1.19 0.00 60 1012.0
20260905013001 76 0 0.0 0.0 0.00 1.19 0.00 60 1012.0
20260905012500 76 0 0.0 0.0 0.00 1.19 0.00 60 1011.9
20260905012001 76 0 0.0 0.0 0.00 1.19 0.00 60 1011.9
20260905010500 76 203 0.0 2.6 0.00 1.19 0.00 61 1011.8
20260905010001 75 203 0.0 6.1 0.00 1.19 0.00 61 1011.9
20260905005502 75 203 0.0 4.3 0.00 1.19 0.00 61 1011.9
20260905004500 75 203 0.0 1.7 0.00 1.19 0.00 62 1011.9
20260905004001 74 203 0.0 4.3 0.00 1.19 0.00 63 1011.9
20260905002500 73 203 0.0 5.2 0.00 1.19 0.00 64 1011.7
20260905002001 73 203 0.0 7.0 0.00 1.19 0.00 65 1011.6
20260905001502 72 208 0.0 7.0 0.00 1.19 0.00 66 1011.6
20260905001001 71 247 0.0 3.5 0.00 1.19 0.00 67 1011.5
20260905000500 71 247 0.0 1.7 0.00 1.19 0.00 67 1011.6
20260905000002 71 0 0.0 0.0 0.00 1.19 0.00 68 1011.5
20260904235500 70 0 0.0 0.0 0.00 1.19 0.00 69 1011.5
20260904235001 70 0 0.0 0.0 0.00 1.19 0.00 69 1011.5
20260904234501 70 0 0.0 0.0 0.00 1.19 0.00 70 1011.5
20260904234002 69 0 0.0 0.0 0.00 1.19 0.00 70 1011.6
20260904233501 69 0 0.0 0.0 0.00 1.19 0.00 70 1011.5
20260904233000 70 0 0.0 0.0 0.00 1.19 0.00 70 1011.4
20260904232500 70 0 0.0 0.0 0.00 1.19 0.00 70 1011.3
20260904232002 70 0 0.0 0.0 0.00 1.19 0.00 70 1011.5
20260904231500 70 0 0.0 0.0 0.00 1.19 0.00 69 1011.5
20260904231000 70 0 0.0 0.0 0.00 1.19 0.00 69 1011.3
20260904230501 70 0 0.0 0.0 0.00 1.19 0.00 69 1011.4
20260904230002 70 0 0.0 0.0 0.00 1.19 0.00 69 1011.3
20260904225001 70 0 0.0 0.0 0.00 1.19 0.00 68 1011.2
20260904224500 71 0 0.0 0.0 0.00 1.19 0.00 68 1011.4
20260904224001 71 0 0.0 0.0 0.00 1.19 0.00 68 1011.2
20260904223500 71 0 0.0 0.0 0.00 1.19 0.00 68 1011.1
20260904222501 71 0 0.0 0.0 0.00 1.19 0.00 67 1011.1
20260904221500 71 0 0.0 0.0 0.00 1.19 0.00 67 1011.2
20260904221000 71 0 0.0 0.0 0.00 1.19 0.00 67 1011.2
20260904220501 72 0 0.0 0.0 0.00 1.19 0.00 67 1011.0
20260904220002 72 0 0.0 0.0 0.00 1.19 0.00 67 1011.3
20260904215501 72 0 0.0 0.0 0.00 1.19 1.19 67 1011.3
20260904214500 72 0 0.0 0.0 0.00 1.19 1.19 66 1011.2
20260904214002 72 0 0.0 0.0 0.00 1.19 1.19 66 1011.3
20260904213502 72 0 0.0 0.0 0.00 1.19 1.19 66 1011.1
20260904213000 73 0 0.0 0.0 0.00 1.19 1.19 66 1011.1